| time (UTC) | temp C | wind direction | speed KPH | gust KPH | rain 1hr cm | rain 24hr cm | rain mn cm | humidity % | barometer mb |
| 20260504034512 | 10 | 211 | 1.6 | 4.8 | 0.00 | 0.43 | 0.00 | 1 | 1016.4 |
| 20260504033013 | 10 | 210 | 3.2 | 8.0 | 0.00 | 0.43 | 0.00 | 1 | 1016.4 |
| 20260504031513 | 10 | 207 | 3.2 | 9.7 | 0.00 | 0.43 | 0.00 | 1 | 1016.4 |
| 20260504024513 | 10 | 193 | 0.0 | 8.0 | 0.00 | 0.43 | 0.00 | 1 | 1016.8 |
| 20260504023013 | 11 | 207 | 1.6 | 6.4 | 0.00 | 0.43 | 0.00 | 2 | 1016.7 |
| 20260504020012 | 11 | 227 | 1.6 | 6.4 | 0.00 | 0.43 | 0.00 | 15 | 1016.8 |
| 20260504014513 | 11 | 227 | 1.6 | 6.4 | 0.00 | 0.43 | 0.00 | 20 | 1016.8 |
| 20260504013012 | 12 | 215 | 1.6 | 6.4 | 0.00 | 0.43 | 0.00 | 22 | 1017.0 |
| 20260504010012 | 12 | 231 | 0.0 | 8.0 | 0.00 | 0.43 | 0.00 | 25 | 1017.0 |
| 20260504004513 | 12 | 213 | 1.6 | 4.8 | 0.00 | 0.43 | 0.00 | 22 | 1016.9 |
| 20260504003012 | 12 | 213 | 1.6 | 4.8 | 0.00 | 0.43 | 0.00 | 18 | 1016.9 |
| 20260504001513 | 12 | 214 | 1.6 | 6.4 | 0.00 | 0.43 | 0.00 | 24 | 1017.1 |
| 20260504000012 | 12 | 219 | 3.2 | 6.4 | 0.00 | 0.43 | 0.00 | 29 | 1017.2 |
| 20260503234513 | 12 | 223 | 1.6 | 6.4 | 0.00 | 0.43 | 0.00 | 26 | 1017.3 |
| 20260503233012 | 12 | 227 | 1.6 | 8.0 | 0.00 | 0.43 | 0.00 | 25 | 1017.4 |
| 20260503231513 | 12 | 227 | 1.6 | 6.4 | 0.00 | 0.43 | 0.00 | 23 | 1017.3 |
| 20260503230013 | 12 | 223 | 0.0 | 4.8 | 0.00 | 0.43 | 0.00 | 19 | 1017.5 |
| 20260503221513 | 12 | 218 | 0.0 | 1.6 | 0.00 | 0.43 | 0.00 | 32 | 1017.5 |
| 20260503220014 | 13 | 239 | 0.0 | 6.4 | 0.00 | 0.43 | 0.00 | 42 | 1017.6 |
| 20260503214513 | 13 | 226 | 1.6 | 6.4 | 0.00 | 0.43 | 0.43 | 45 | 1017.5 |
| 20260503213013 | 13 | 222 | 1.6 | 6.4 | 0.00 | 0.43 | 0.43 | 51 | 1017.6 |
| 20260503211513 | 13 | 232 | 1.6 | 4.8 | 0.00 | 0.43 | 0.43 | 53 | 1017.4 |
| 20260503210013 | 13 | 210 | 0.0 | 3.2 | 0.00 | 0.43 | 0.43 | 53 | 1017.6 |
| 20260503204513 | 13 | 220 | 0.0 | 3.2 | 0.00 | 0.43 | 0.43 | 51 | 1017.2 |
| 20260503201512 | 13 | 221 | 0.0 | 3.2 | 0.00 | 0.43 | 0.43 | 59 | 1017.0 |
| 20260503200013 | 13 | 198 | 1.6 | 3.2 | 0.00 | 0.43 | 0.43 | 60 | 1016.8 |
| 20260503194512 | 14 | 242 | 3.2 | 9.7 | 0.00 | 0.43 | 0.43 | 60 | 1016.7 |
| 20260503193013 | 15 | 247 | 6.4 | 11.3 | 0.00 | 0.43 | 0.43 | 58 | 1016.5 |
| 20260503190013 | 15 | 249 | 8.0 | 14.5 | 0.00 | 0.43 | 0.43 | 55 | 1016.3 |
| 20260503184512 | 16 | 247 | 11.3 | 17.7 | 0.00 | 0.43 | 0.43 | 52 | 1016.0 |
| 20260503183013 | 16 | 248 | 11.3 | 20.9 | 0.00 | 0.43 | 0.43 | 50 | 1015.9 |
| 20260503181512 | 17 | 248 | 12.9 | 24.1 | 0.00 | 0.43 | 0.43 | 48 | 1015.9 |
| 20260503180012 | 17 | 250 | 16.1 | 25.7 | 0.00 | 0.43 | 0.43 | 47 | 1015.8 |
| 20260503174513 | 17 | 247 | 14.5 | 25.7 | 0.00 | 0.43 | 0.43 | 48 | 1015.8 |
| 20260503173013 | 17 | 247 | 14.5 | 25.7 | 0.00 | 0.43 | 0.43 | 48 | 1015.6 |
| 20260503171512 | 18 | 239 | 14.5 | 24.1 | 0.00 | 0.43 | 0.43 | 46 | 1015.6 |
| 20260503081512 | 13 | 251 | 1.6 | 8.0 | 0.00 | 0.00 | 0.00 | 1 | 1018.6 |
| 20260503053012 | 12 | 0 | 0.0 | 0.0 | 0.00 | 0.00 | 0.00 | 1 | 1018.0 |
| 20260503051512 | 12 | 0 | 0.0 | 0.0 | 0.00 | 0.00 | 0.00 | 1 | 1018.0 |
| 20260503050012 | 12 | 0 | 0.0 | 0.0 | 0.00 | 0.00 | 0.00 | 1 | 1017.8 |
| 20260503044513 | 12 | 0 | 0.0 | 0.0 | 0.00 | 0.00 | 0.00 | 1 | 1017.8 |
| 20260503043013 | 12 | 170 | 0.0 | 3.2 | 0.00 | 0.00 | 0.00 | 1 | 1018.2 |
| 20260503041513 | 12 | 165 | 0.0 | 1.6 | 0.00 | 0.00 | 0.00 | 1 | 1018.2 |
| 20260503040012 | 12 | 0 | 0.0 | 0.0 | 0.00 | 0.00 | 0.00 | 1 | 1018.1 |